Darwin, CA

1:18 AM PST on February 10, 2016 (GMT -0800)
China Lake NAWS

Weather History for KNID - January, 2013

Change the Weather History Date:

Sunday, January 13, 2013

  Actual Average Record
Temperature  
Mean Temperature 27 °F -  
Max Temperature 42 °F 57 °F 73 °F (1980)
Min Temperature 12 °F 33 °F 12 °F (2013)
Degree Days  
Heating Degree Days 38    
Moisture  
Dew Point 2 °F    
Average Humidity 36    
Maximum Humidity 59    
Minimum Humidity 20    
Precipitation  
Precipitation 0.00 in - - ()
Sea Level Pressure  
Sea Level Pressure 30.18 in    
Wind  
Wind Speed 4 mph (North)    
Max Wind Speed 16 mph    
Max Gust Speed -    
Visibility 10 miles    
Events      
Averages and records for this station are not official NWS values.
T = Trace of Precipitation, MM = Missing Value Source: NWS Daily Summary

Daily Weather History Graph

Daily Weather History Graph

Search for Another Location

Airport or City:

Trip Planner

Search our weather history database for the weather conditions in past years. The results will help you decide how hot, cold, wet, or windy it might be!

Date:

Astronomy

Jan. 13, 2013 Rise Set
Actual Time 7:00 AM PST 4:59 PM PST
Civil Twilight 6:32 AM PST 5:27 PM PST
Nautical Twilight 6:01 AM PST 5:58 PM PST
Astronomical Twilight 5:30 AM PST 6:29 PM PST
Moon 8:07 AM PST (1/13) 7:36 PM PST (1/13)
Length of Visible Light 10h 54m
Length of Day
9h 58m
Waxing Crescent, 6% of the Moon is Illuminated
Jan 13
Waxing Crescent
Jan 18
First Quarter
Jan 26
Full
Feb 3
Last Quarter
Feb 9
New

Hourly Weather History & Observations

Time (PST) Temp. Windchill Dew Point Humidity Pressure Visibility Wind Dir Wind Speed Gust Speed Precip Events Conditions
12:56 AM 18.0 °F - 3.0 °F 52% 30.18 in 10.0 mi Calm Calm - N/A   Clear
1:56 AM 16.0 °F 10.4 °F 3.0 °F 57% 30.19 in 10.0 mi SSW 3.5 mph - N/A   Clear
2:56 AM 15.1 °F 4.2 °F 1.9 °F 56% 30.18 in 10.0 mi SSW 8.1 mph - N/A   Clear
3:56 AM 15.1 °F 7.7 °F -0.0 °F 51% 30.18 in 10.0 mi West 4.6 mph - N/A   Clear
4:56 AM 12.0 °F - -2.0 °F 53% 30.19 in 10.0 mi Calm Calm - N/A   Clear
5:56 AM 12.0 °F 1.5 °F -0.0 °F 59% 30.20 in 10.0 mi Variable 6.9 mph - N/A   Clear
6:56 AM 12.0 °F - -2.0 °F 53% 30.22 in 10.0 mi Calm Calm - N/A   Clear
7:56 AM 18.0 °F - 3.9 °F 54% 30.24 in 10.0 mi Calm Calm - N/A   Clear
8:56 AM 21.0 °F - 1.9 °F 44% 30.25 in 10.0 mi Calm Calm - N/A   Clear
9:56 AM 32.0 °F - 5.0 °F 32% 30.21 in 10.0 mi Calm Calm - N/A   Clear
10:56 AM 37.0 °F - 3.0 °F 24% 30.16 in 10.0 mi Calm Calm - N/A   Clear
11:56 AM 39.9 °F 35.1 °F 3.0 °F 21% 30.12 in 10.0 mi NE 6.9 mph - N/A   Clear
12:56 PM 41.0 °F 35.2 °F 3.9 °F 21% 30.11 in 10.0 mi NNE 9.2 mph - N/A   Clear
1:56 PM 39.9 °F 36.7 °F 3.0 °F 21% 30.11 in 10.0 mi Variable 4.6 mph - N/A   Clear
2:56 PM 42.1 °F 38.4 °F 3.0 °F 20% 30.10 in 10.0 mi ENE 5.8 mph - N/A   Clear
3:56 PM 41.0 °F 35.2 °F 3.0 °F 21% 30.12 in 10.0 mi East 9.2 mph - N/A   Partly Cloudy
4:56 PM 36.0 °F 31.1 °F 3.0 °F 25% 30.14 in 10.0 mi ESE 5.8 mph - N/A   Clear
5:56 PM 32.0 °F 26.4 °F 1.9 °F 28% 30.17 in 10.0 mi ESE 5.8 mph - N/A   Clear
6:56 PM 32.0 °F 23.6 °F 1.9 °F 28% 30.18 in 10.0 mi East 10.4 mph - N/A   Clear
7:56 PM 27.0 °F 21.6 °F 1.0 °F 33% 30.20 in 10.0 mi NW 4.6 mph - N/A   Clear
8:56 PM 26.1 °F 19.4 °F -0.0 °F 32% 30.21 in 10.0 mi NW 5.8 mph - N/A   Clear
9:56 PM 23.0 °F 18.4 °F -0.9 °F 35% 30.22 in 10.0 mi West 3.5 mph - N/A   Clear
10:56 PM 30.9 °F 19.8 °F -0.9 °F 26% 30.22 in 10.0 mi NNW 16.1 mph - N/A   Clear
11:56 PM 26.1 °F 16.8 °F -2.0 °F 30% 30.24 in 10.0 mi WNW 9.2 mph - N/A   Clear